Location: La Brionne
(46.1728°N, 1.7849°E)
Time: 08:50:59
(UTC+00:00)

Cosmos 1486 Rocket - Pass Details

Date: 16 June 2021
Orbit: 759 x 783 km, 74.1° (Epoch: 02 August)

Event Time Altitude Azimuth Distance (km) Brightness Sun altitude
Rises 22:10:32 0° 341° (NNW) 3,240 9.0 -16.6°
Reaches altitude 10° 22:12:59 10° 347° (NNW) 2,307 7.7 -16.8°
Maximum altitude 22:18:05 51° 63° (ENE) 958 4.5 -17.1°
Enters shadow 22:20:48 26° 127° (SE) 1,473 5.0 -17.3°
